This demonstration page uses our WeatherBlox Daily Observations layout. Learn more.

Left ArrowRight Arrow

39.12711, -84.51439

Hourly Observations for December 5, 2018

Temp ( °F °C ) Dew Point ( °F °C ) Humidity (%) Winds ( mph kmh ) Pressure ( in mb ) Visibility ( mi km ) Precip ( " mm )
12:53 am 00:53 Cloudy 33 0.6 29 -1.7 85 85 SW 7 11 30.14 1021 10 16 0.00 0.03
1:40 am 01:40 Cloudy with Light Snow 32 0 28 -2.2 85 85 SW 6 9 30.15 1021 7 11 0.00 0.03
1:53 am 01:53 Cloudy with Light Snow 32 0 28 -2.2 85 85 WSW 5 7 30.13 1020 8 13 0.00 0.03
2:20 am 02:20 Cloudy with Light Snow 32 0 29 -1.7 88 88 WSW 5 7 30.15 1021 3 4 0.00 0.03
2:38 am 02:38 Cloudy with Light Snow 32 0 30 -1.1 92 92 W 6 9 30.15 1021 2 2 0.01 0.25
2:53 am 02:53 Cloudy with Light Snow 32 0 31 -0.6 96 96 W 6 9 30.13 1020 3 4 0.02 0.51
2:59 am 02:59 Cloudy with Light Snow 32 0 30 -1.1 92 92 W 7 11 30.15 1021 2 3 0.00 0.03
3:12 am 03:12 Cloudy with Light Snow 32 0 29 -1.7 88 88 W 8 13 30.15 1021 2 3 0.01 0.25
3:29 am 03:29 Cloudy with Light Snow 31 -0.6 28 -2.2 89 89 W 9 15 30.15 1021 3 5 0.01 0.25
3:39 am 03:39 Cloudy with Light Snow 31 -0.6 28 -2.2 89 89 W 10 17 30.15 1021 5 8 0.01 0.25
3:53 am 03:53 Cloudy with Light Snow 31 -0.6 28 -2.2 89 89 W 9 15 30.13 1020 5 8 0.01 0.25
4:07 am 04:07 Cloudy with Light Snow 31 -0.6 28 -2.2 89 89 W 8 13 30.15 1021 5 8 0.00 0.03
4:53 am 04:53 Cloudy with Light Snow 31 -0.6 28 -2.2 89 89 WSW 8 13 30.13 1020 6 10 0.00 0.03
5:53 am 05:53 Cloudy with Light Snow 31 -0.6 27 -2.8 85 85 WNW 13 20 30.15 1021 8 13 0.00 0.03
6:03 am 06:03 Cloudy with Light Snow 31 -0.6 27 -2.8 85 85 W 13 20 30.18 1022 5 8 0.00 0.03
6:53 am 06:53 Cloudy with Light Snow 31 -0.6 27 -2.8 85 85 W 10 17 30.17 1022 6 10 0.00 0.03
7:53 am 07:53 Cloudy 30 -1.1 26 -3.3 85 85 W 10 17 30.18 1022 7 11 0.00 0.03
8:53 am 08:53 Cloudy 31 -0.6 26 -3.3 82 82 W 9 15 30.20 1023 8 13 0.00 0.00
9:53 am 09:53 Mostly Cloudy 32 0 25 -3.9 75 75 WNW 12 19 30.23 1024 10 16 0.00 0.00
10:53 am 10:53 Cloudy 32 0 24 -4.4 73 73 W 14 22 30.25 1024 10 16 0.00 0.00
11:53 am 11:53 Cloudy 32 0 25 -3.9 75 75 W 12 19 30.25 1024 10 16 0.00 0.00
12:53 pm 12:53 Cloudy 33 0.6 24 -4.4 70 70 W 10 17 30.24 1024 10 16 0.00 0.00
1:53 pm 13:53 Cloudy 33 0.6 23 -5 66 66 W 8 13 30.24 1024 10 16 0.00 0.00
2:53 pm 14:53 Cloudy 33 0.6 24 -4.4 70 70 WSW 10 17 30.24 1024 10 16 0.00 0.00
3:53 pm 15:53 Cloudy 32 0 25 -3.9 75 75 W 15 24 30.27 1025 10 16 0.00 0.00
4:53 pm 16:53 Cloudy 32 0 23 -5 69 69 WSW 9 15 30.28 1026 10 16 0.00 0.00
5:53 pm 17:53 Cloudy 32 0 21 -6.1 64 64 WSW 15 24 30.30 1026 10 16 0.00 0.00
6:53 pm 18:53 Cloudy 31 -0.6 22 -5.6 69 69 WSW 15 24 30.32 1027 10 16 0.00 0.00
7:53 pm 19:53 Cloudy 30 -1.1 21 -6.1 69 69 WSW 9 15 30.34 1027 10 16 0.00 0.00
8:53 pm 20:53 Cloudy 30 -1.1 19 -7.2 64 64 WSW 13 20 30.34 1027 10 16 0.00 0.00
9:53 pm 21:53 Partly Cloudy 27 -2.8 20 -6.7 75 75 SSW 8 13 30.35 1028 10 16 0.00 0.00
10:53 pm 22:53 Cloudy 29 -1.7 21 -6.1 72 72 S 8 13 30.34 1027 10 16 0.00 0.00
11:53 pm 23:53 Partly Cloudy 28 -2.2 21 -6.1 75 75 S 8 13 30.34 1027 10 16 0.00 0.00

Powered by AerisWeather